Regional Weather Roundup
Issued by NWS

Home | Current Version | Previous Version | Graphics & Text | Print | Product List | Glossary Off
Versions: 1 2 3 4 5 6 7 8 9 10 11 12 13 14 15 16 17 18 19 20 21 22 23 24 25 26 27 28 29 30 31 32 33 34 35 36 37 38 39 40 41 42 43 44 45 46 47 48 49 50

000
ASUS43 KTOP 251208
RWRKS

WEATHER ROUNDUP FOR KANSAS
NATIONAL WEATHER SERVICE GOODLAND KS
700 AM CDT SUN JUN 25 2017

NOTE:  "FAIR" INDICATES FEW OR NO CLOUDS BELOW 12,000 FEET WITH NO
SIGNIFICANT WEATHER AND/OR OBSTRUCTIONS TO VISIBILITY.

KSZ001>006-013>018-027>032-041>047-251300-
NORTHWEST KANSAS

CITY           SKY/WX    TMP DP  RH WIND       PRES   REMARKS
GOODLAND       CLOUDY    54  54 100 E6        30.31R
6HR MIN TEMP:  54; 6HR MAX TEMP:  61; 6HR PCP:  0.06;

HAYS           MOCLDY    58  53  84 E8        30.29F
HILL CITY      CLOUDY    59  57  93 N9        30.33R
6HR MIN TEMP:  59; 6HR MAX TEMP:  61;

RUSSELL        CLOUDY    60  52  74 CALM      30.29R
6HR MIN TEMP:  57; 6HR MAX TEMP:  67; 6HR PCP:  0.09;

$$

KSZ061>065-074>080-084>089-251300-
SOUTHWEST KANSAS

CITY           SKY/WX    TMP DP  RH WIND       PRES   REMARKS
DODGE CITY     CLOUDY    65  54  67 S7        30.29R
6HR MIN TEMP:  63; 6HR MAX TEMP:  70; 6HR PCP: TRACE;

ELKHART          N/A     63  51  65 S8          N/A
GARDEN CITY    CLOUDY    62  51  67 N15       30.31R
6HR MIN TEMP:  62; 6HR MAX TEMP:  70;

GREAT BEND     HVY RAIN  62  58  86 S3        30.33R FOG
LIBERAL        CLOUDY    67  57  70 S8        30.30R
PRATT          CLOUDY    60  52  74 E5        30.29R
6HR MIN TEMP:  59; 6HR MAX TEMP:  71;

$$

KSZ066>073-081>083-090>101-251300-
SOUTHEAST KANSAS

CITY           SKY/WX    TMP DP  RH WIND       PRES   REMARKS
CHANUTE        CLOUDY    65  54  67 CALM      30.26F
6HR MIN TEMP:  58; 6HR MAX TEMP:  66;

COFFEYVILLE    PTCLDY    61  57  87 NE3       30.26F
6HR MIN TEMP:  61; 6HR MAX TEMP:  67;

HUTCHINSON     CLOUDY    62  53  72 E6        30.28R
6HR MIN TEMP:  54; 6HR MAX TEMP:  67;

MEDICINE LODGE   N/A     64  54  69 E6        30.28R
NEWTON         CLEAR     62  52  69 E5        30.29S
PARSONS        CLOUDY    63  59  87 CALM      30.27F
6HR MIN TEMP:  57; 6HR MAX TEMP:  63;

WICHITA INTL   MOCLDY    66  56  70 S5        30.27S
6HR MIN TEMP:  64; 6HR MAX TEMP:  69;

WICHITA JABRA  CLEAR     63  54  72 E3        30.27S
6HR MIN TEMP:  61; 6HR MAX TEMP:  65;

WICHITA MCCONL PTCLDY    66  53  63 SE6       30.27F
WINFIELD       PTCLDY    63  55  75 SE3       30.28F
6HR MIN TEMP:  59; 6HR MAX TEMP:  67;

$$

KSZ007>012-019>026-033>040-048>060-102>105-251300-
NORTHEAST KANSAS

CITY           SKY/WX    TMP DP  RH WIND       PRES   REMARKS
CONCORDIA      CLOUDY    58  52  80 N5        30.31R
6HR MIN TEMP:  56; 6HR MAX TEMP:  62;

EMPORIA        PTCLDY    59  56  89 CALM      30.28R
6HR MIN TEMP:  57; 6HR MAX TEMP:  67; 6HR PCP:  0.02;

LAWRENCE       SUNNY     59  55  87 W6        30.28R
6HR MIN TEMP:  55; 6HR MAX TEMP:  66;

MANHATTAN      CLEAR     58  54  86 N3        30.29R
6HR MIN TEMP:  54; 6HR MAX TEMP:  65;

MARYSVILLE     PTCLDY    52  48  87 N3        30.31S
OLATHE IND     SUNNY     62  53  72 NW9       30.28R
6HR MIN TEMP:  60; 6HR MAX TEMP:  68;

OLATHE EXE     SUNNY     63  53  70 NW8       30.27R
6HR MIN TEMP:  61; 6HR MAX TEMP:  68;

SALINA         LGT RAIN  63  56  78 CALM      30.29R
6HR MIN TEMP:  61; 6HR MAX TEMP:  70; 6HR PCP:  0.15;

TOPEKA BILLARD CLEAR     62  55  77 NW5       30.28R
6HR MIN TEMP:  59; 6HR MAX TEMP:  71;

TOPEKA FORBES  CLEAR     62  55  77 NW5       30.29R
6HR MIN TEMP:  59; 6HR MAX TEMP:  69;

$$



USA.gov is the U.S. government's official web portal to all federal, state and local government web resources and services.